Regional Weather Roundup
Issued by NWS Newport/Morehead, NC

Current Version | Previous Version | Text Only | Print | Product List | Glossary On
Versions: 1 2 3 4 5 6 7 8 9 10 11 12 13 14 15 16 17 18 19 20 21 22 23 24 25 26 27 28 29 30 31 32 33 34 35 36 37 38 39 40 41 42 43 44 45 46 47 48 49 50
000 ASUS42 KMHX 260814 RWRMHX WEATHER ROUNDUP FOR EASTERN NORTH CAROLINA NATIONAL WEATHER SERVICE NEWPORT/MOREHEAD CITY NC 400 AM EDT SAT MAY 26 2018 NOTE: "FAIR" INDICATES FEW OR NO CLOUDS BELOW 12,000 FEET WITH NO SIGNIFICANT WEATHER AND/OR OBSTRUCTIONS TO VISIBILITY NCZ015>017-031-032-045>047-102-103-260900- NORTH COAST CITY SKY/WX TMP DP RH WIND PRES REMARKS EDENTON FAIR 75 71 87 SW6 29.99S ELIZABETH CITY FAIR 73 72 96 SW7 29.97F KITTY HAWK FAIR 72 70 93 SW5 29.98S MANTEO FAIR 73 70 91 SW9 29.99S $$ NCZ045>047-081-094-103-104-260900- CENTRAL COAST CITY SKY/WX TMP DP RH WIND PRES REMARKS FRISCO FAIR 74 73 97 SW8 30.00F $$ NCZ095-097-098-100-101-260900- SOUTHERN COAST CITY SKY/WX TMP DP RH WIND PRES REMARKS BEAUFORT FAIR 74 73 97 SW7 30.00F CEDAR ISLAND NOT AVBL JACKSONVILLE FAIR 71 71 100 S3 29.99S PINEY ISLAND NOT AVBL WILMINGTON FAIR 70 68 93 CALM 29.99F $$ NCZ011>013-027>030-043-044-078>080-089-090>093-098-260900- COASTAL PLAIN CITY SKY/WX TMP DP RH WIND PRES REMARKS AHOSKIE FAIR 69 69 100 CALM 29.97S CLINTON CLOUDY 70 70 100 S3 29.99S ELIZABETHTOWN FOG 70 69 99 S5 29.99S VSB 3/4 GOLDSBORO FAIR 70 69 96 S3 29.97S GREENVILLE FAIR 70 70 100 SW5 30.00S HAVELOCK NOT AVBL KENANSVILLE CLOUDY 68 68 100 CALM 29.99S FOG KINSTON NOT AVBL NEW BERN FAIR 69 69 100 S5 30.00F RICHLANDS FAIR 69 69 100 S3 30.00S ROCKY MOUNT FAIR 69 68 96 S5 29.97F WASHINGTON MOCLDY 70 69 97 CALM 29.99S WHITEVILLE FAIR 71 70 96 CALM 29.98F $$ AMZ130-135-150-152-154-156-158-170-250-252-270-ANZ085-086-088-633-658-670-260900- MARINE OBSERVATIONS STATION/POSITION TIME TEMP WIND PRES WAVE SWELL AIR SEA DIR/SP/G HT/PER HT/PER (UTC) (F) (DEG/KT/KT) (MB) (FT/S) (FT/S) CHESAPEAKE LIGHT NOT AVBL 64 E VA BEACH 0750 71 69 210/ 8/ 10 1015.6 3/ 9 2/ 9 DUCK 0748 75 62 230/ 14/ 17 1014.8 2 E DUCK 0800 68 N/A 2/ 9 OREGON INLET 0742 76 79 230/ 14/ 15 1015.2 13E OREGON INLT 0748 70 N/A 2/ 4 2/ 8 HATTERAS CG 0748 74 78 220/ 8/ 11 1015.4 DIAMOND BUOY 0750 77 77 230/ 14/ 16 1016.1 3/ 9 2/ 9 CAPE LOOKOUT 0800 210/ 6/ 7 1016.0 BEAUFORT LAB 0742 75 79 210/ 5/ 8 1016.0 30 SE NEW RVR IN 0708 76 76 220/ 8/ 10 1016.2 30 SE NEW RVR IN 0800 76 N/A 3/ 8 27 SE WRIGHTSVLE 0708 76 76 230/ 10/ 14 1016.0 5 SE WRIGHTSVLE NOT AVBL 225 S CAPE HAT 0750 79 210/ 8/ 10 1016.8 2/ 8 2/ 8 41 SE CHARLESTON 0750 76 200/ 8/ 8 1015.3 3/ 8 3/ 8 $$

USA.gov is the U.S. government's official web portal to all federal, state and local government web resources and services.